Regional Weather Roundup
Issued by NWS Sioux Falls, SD

Home | Current Version | Previous Version | Graphics & Text | Print | Product List | Glossary On
Versions: 1 2 3 4 5 6 7 8 9 10 11 12 13 14 15 16 17 18 19 20 21 22 23 24 25 26 27 28 29 30 31 32 33 34 35 36 37 38 39 40 41 42 43 44 45 46 47 48 49 50
000
ASUS43 KFSD 050502
RWRFSD

WEATHER ROUNDUP FOR SE SOUTH DAKOTA/SW MINNESOTA/NW IOWA
NATIONAL WEATHER SERVICE SIOUX FALLS SD
1200 AM CDT SAT SEP 05 2015

NOTE: "FAIR" INDICATES FEW OR NO CLOUDS BELOW 12,000 FEET WITH NO
SIGNIFICANT WEATHER AND OR OBSTRUCTIONS TO VISIBILITY.


SDZ038>040-050-052>070-050600-
SOUTHEAST SOUTH DAKOTA

CITY           SKY/WX    TMP DP  RH WIND       PRES   REMARKS
BROOKINGS      MOCLDY    77  70  78 SE15G23   29.88S
CHAMBERLAIN    NOT AVBL
HURON          PTCLDY    76  72  87 SE9       29.79S
MADISON        FAIR      72  72 100 SE9       29.87S
MITCHELL       MOCLDY    76  72  87 SE8       29.80S
SIOUX FALLS    CLEAR     77  69  76 S14G23    29.86S
WINNER         FAIR      77  62  59 S8        29.79R
YANKTON        PTCLDY    75  70  83 SE12      29.82S
$$

MNZ071-072-080-081-089-090-097-098-050600-
SOUTHWEST MINNESOTA

CITY           SKY/WX    TMP DP  RH WIND       PRES   REMARKS
FAIRMONT       PTCLDY    75  66  73 SE13      29.93S
JACKSON        CLEAR     77  70  78 S12       29.94S
LUVERNE        PTCLDY    77  68  73 S9        29.89S
MARSHALL       PTCLDY    75  68  78 SE9       29.89R
MONTEVIDEO     MOCLDY    77  72  83 S9        29.88R
PIPESTONE      CLOUDY    75  70  83 S12       29.90S
REDWOOD FALLS  CLEAR     76  71  85 SE13      29.89S
TRACY          PTCLDY    76  72  87 S8G16     29.89S
WINDOM         CLEAR     75  70  83 SE10      29.92S
WORTHINGTON    MOCLDY    75  66  73 S12G18    29.92R
$$

IAZ001>003-012>014-020>022-031-032-NEZ013-014-SDZ071-050600-
NORTHWEST IOWA

CITY           SKY/WX    TMP DP  RH WIND       PRES   REMARKS
ESTHERVILLE    PTCLDY    75  71  87 S10       29.94S
SIOUX CITY     CLEAR     75  69  81 SE10      29.88R
SPENCER        CLEAR     77  69  76 S13       29.93R HAZE
$$

ABBREVIATIONS USED IN REMARKS
   TC - TEMPERATURE IN CELSIUS
  WCI - WIND CHILL INDEX
   HX - HEAT INDEX
  VSB - VISIBILITY



USA.gov is the U.S. government's official web portal to all federal, state and local government web resources and services.